Regional Weather Roundup
Issued by NWS Bismarck, ND

Home | Current Version | Previous Version | Text Only | Print | Product List | Glossary On
Versions: 1 2 3 4 5 6 7 8 9 10 11 12 13 14 15 16 17 18 19 20 21 22 23 24 25 26 27 28 29 30 31 32 33 34 35 36 37 38 39 40 41 42 43 44 45 46 47 48 49 50
000
ASUS43 KBIS 050502
RWRBIS

NWR BROADCAST TEXT
NATIONAL WEATHER SERVICE BISMARCK ND
1200 AM CDT SUN JUL 05 2015

NOTE: "FAIR" INDICATES FEW OR NO CLOUDS BELOW 12,000 FEET WITH NO
SIGNIFICANT WEATHER AND/OR OBSTRUCTIONS TO VISIBILITY.


CITY           SKY/WX    TMP DP  RH WIND       PRES   REMARKS
WILLISTON      CLEAR     71  62  73 N14       29.78F
MINOT          CLEAR     66  62  87 N10       29.74R
MINOT AFB      NOT AVBL
BISMARCK       CLEAR     76  69  79 S6        29.71F
DICKINSON      CLEAR     68  64  87 NE6       29.77R FOG
GARRISON         N/A     67  63  87 N3        29.73F
HETTINGER ARPT PTCLDY    66  63  90 CALM      29.79R FOG
JAMESTOWN      PTCLDY    73  67  81 S8        29.74F
HAZEN          FAIR      68  66  94 CALM      29.75S
OAKES            N/A     72  70  94 S10       29.76F
STANLEY        FAIR      64  64 100 N7        29.80S
$$

CITY           SKY/WX    TMP DP  RH WIND       PRES   REMARKS
GRAND FORKS    CLOUDY    75  67  76 S10       29.71R
GRAND FORKS AF CLOUDY    76  68  75 S9        29.71S
DEVILS LAKE    CLOUDY    68  57  68 E10       29.75R
FARGO          MOCLDY    75  65  70 S14       29.75F
CAVALIER       TSTM      66  64  94 CALM      29.78R
GRAFTON        FAIR      75  68  78 S7        29.72R
GWINNER        FAIR      73  68  83 S9        29.77F
LANGDON        FAIR      66  64  94 N9G17     29.76F
$$

CITY           SKY/WX    TMP DP  RH WIND       PRES   REMARKS
ABERDEEN       MOCLDY    74  67  78 SE16      29.77F THUNDER
MOBRIDGE       CLEAR     76  71  85 SE13      29.72F
BUFFALO          N/A     75  52  44 E5        29.74R
RAPID CITY     CLEAR     69  63  81 W5        29.82S HAZE
GLASGOW        CLEAR     70  53  54 E18       29.77F
SIDNEY         CLEAR     72  63  73 N13       29.78S
WOLF POINT     CLEAR     70  56  61 NE12      29.79F
GLENDIVE       CLEAR     72  64  78 N16       29.79S
MILES CITY     MOCLDY    74  57  55 N8        29.76S
BAKER          CLEAR     67  56  67 SE5       29.79S
$$

CITY           SKY/WX    TMP DP  RH WIND       PRES   REMARKS
BILLINGS       PTCLDY    80  48  32 NE12      29.81R
GREAT FALLS    PTCLDY    68  51  54 N12       29.81R
$$




USA.gov is the U.S. government's official web portal to all federal, state and local government web resources and services.